Location: Bacea
(45.9500°N, 22.6667°E)
Time: 06:52:48
(UTC+00:00)

Cosmos 1300 - Pass Details

Date: 01 June 2022
Orbit: 506 x 508 km, 82.5° (Epoch: 06 July)

Event Time Altitude Azimuth Distance (km) Brightness Sun altitude
Rises 21:18:47 0° 9° (N) 2,623 7.4 -20.2°
Reaches altitude 10° 21:21:56 10° 38° (NE) 1,731 5.8 -20.3°
Maximum altitude 21:23:48 13° 67° (ENE) 1,536 5.2 -20.4°
Enters shadow 21:24:44 12° 83° (E) 1,585 5.1 -20.4°
